Theta_e
337 344 346 347 346 346 348 350 349 347 345 343 342 341 341 343 344 344 343 343 345 343 342 341 338 338 338 338 338 338 339 342 342 342 343 342 343 344 343 341 341 337 340
340 344 344 347 347 348 349 350 349 348 346 343 342 341 341 344 345 344 344 344 344 343 340 340 340 340 339 338 337 338 338 340 341 340 341 342 342 342 342 340 340 336 337
341 343 343 346 347 348 348 349 348 348 345 343 342 342 341 344 344 343 343 343 344 343 343 343 340 338 338 338 338 338 338 339 341 340 339 335 336 341 340 338 337 336 335
342 342 342 343 346 348 347 348 348 347 346 344 343 342 342 343 342 342 341 343 343 341 341 341 339 339 337 338 337 338 339 338 339 338 335 335 335 340 339 337 335 334 332
341 341 342 343 346 347 346 347 347 347 346 346 344 343 342 342 341 341 341 342 341 339 336 338 338 337 338 338 337 338 336 339 337 334 333 332 332 335 336 334 332 331 331
340 341 341 344 346 347 346 347 347 347 347 346 345 343 343 343 343 342 342 341 340 339 335 337 337 336 336 337 336 336 338 337 334 330 330 331 328 334 334 332 330 329 329
339 340 341 342 345 345 346 346 346 346 346 346 344 344 343 343 342 342 342 340 339 338 337 336 336 336 337 336 335 335 337 335 329 327 326 326 327 333 333 331 329 328 327
338 339 340 337 339 341 342 344 344 344 345 345 345 342 342 342 342 342 341 340 338 338 338 337 338 339 339 337 337 338 335 332 328 326 326 327 332 332 331 330 328 327 326
338 339 339 340 337 334 337 338 339 341 341 342 342 342 340 339 339 340 339 338 337 338 338 339 339 339 338 337 337 335 333 329 327 326 327 327 332 331 330 329 327 326 325
337 338 337 338 338 338 337 331 333 335 336 337 336 335 334 334 335 336 333 335 337 336 338 338 338 339 337 336 335 332 329 328 327 326 326 328 332 331 329 327 326 325 323
328 334 337 336 336 336 336 333 329 330 331 331 330 328 328 332 333 330 330 332 336 336 338 337 337 336 334 332 331 330 328 328 326 326 326 330 331 331 329 326 325 324 322
301 308 331 334 335 335 335 333 332 332 331 329 329 327 329 328 330 330 325 328 332 332 335 336 336 331 326 324 328 329 331 328 327 325 326 330 331 331 328 326 324 323 321
297 302 306 329 334 334 333 333 331 331 329 328 327 327 328 328 327 328 327 326 328 325 331 332 328 324 322 323 324 326 328 329 326 325 326 329 330 330 328 326 324 322 321
298 299 301 305 323 332 334 332 330 329 329 328 327 326 327 328 327 325 324 323 327 329 325 325 323 321 321 323 324 324 325 326 325 325 325 324 329 329 328 326 324 322 320
299 300 302 303 305 310 322 332 331 328 328 328 328 327 327 327 326 325 325 325 327 328 325 322 321 320 318 318 323 321 321 322 323 324 324 320 326 328 328 326 325 323 322
301 301 303 304 305 305 308 313 327 331 329 328 327 327 327 327 326 325 325 326 327 327 324 322 321 318 316 315 317 317 316 315 319 321 322 322 324 326 327 326 325 324 322
300 301 302 304 305 305 305 307 310 318 331 329 326 327 328 327 326 326 326 326 327 327 323 322 320 314 310 311 309 310 311 310 309 312 313 318 321 322 324 325 324 323 322
298 299 301 304 303 303 304 305 307 310 320 327 329 328 328 327 326 326 326 326 327 325 323 321 316 311 308 308 306 305 305 306 305 304 305 306 311 317 321 323 322 321 320
298 298 298 300 300 302 303 305 306 310 315 324 327 328 328 328 327 326 326 326 327 325 322 321 315 310 305 302 301 300 301 302 302 302 301 300 301 302 311 319 318 318 318
298 298 298 299 299 300 301 303 304 308 310 315 321 323 327 328 327 325 326 325 326 324 321 319 312 309 304 300 296 292 292 293 295 296 297 297 297 298 298 301 310 311 315
297 297 297 297 298 298 299 299 299 299 303 305 310 313 318 327 327 325 325 325 325 322 319 316 309 303 300 295 290 288 288 289 290 290 291 292 293 293 293 293 296 300 309
296 296 296 296 297 298 299 299 299 299 301 303 305 307 309 311 328 325 324 324 324 321 318 312 307 303 298 299 299 290 287 288 287 289 289 289 288 290 290 291 294 294 296
295 293 295 295 296 295 296 298 298 298 298 299 301 305 309 312 317 325 324 324 324 321 316 310 307 305 295 299 299 294 288 290 284 286 287 287 287 287 288 289 291 292 293
292 292 292 293 293 293 294 293 293 293 293 295 298 301 304 307 310 315 324 323 322 320 317 310 307 305 301 298 297 296 294 289 288 280 285 285 286 286 286 288 289 290 290
293 291 291 290 290 291 292 291 291 292 294 295 296 298 301 305 308 310 319 323 321 319 317 310 306 305 304 302 300 294 292 292 290 285 280 281 284 285 286 286 287 288 288
290 289 288 288 288 289 290 290 290 290 291 292 293 294 297 302 305 310 314 323 321 319 315 310 307 305 304 304 303 298 294 291 290 287 284 281 282 283 285 286 286 286 287
Wind_Speed
8 10 16 15 17 16 16 17 17 17 16 14 13 13 12 11 13 14 15 17 15 18 18 17 16 17 16 16 16 16 16 14 15 16 16 15 17 21 23 21 20 18 24
12 12 17 16 15 15 14 15 16 16 16 15 15 13 12 10 15 16 15 15 16 17 17 18 17 17 16 17 17 17 17 15 15 15 13 16 22 25 25 22 21 20 22
15 13 14 15 15 15 15 14 15 16 17 15 14 15 15 13 14 13 16 16 17 18 17 18 18 17 17 16 16 16 17 14 14 14 13 9 14 25 24 23 22 21 22
14 12 10 14 15 15 16 14 15 16 16 16 16 16 16 14 16 17 16 13 14 16 16 16 18 16 18 17 17 16 15 13 11 16 8 10 13 23 23 24 22 22 21
11 11 9 12 15 14 14 15 15 16 16 15 15 17 18 16 14 15 14 13 12 12 15 14 16 16 17 16 14 13 13 17 18 15 11 11 11 17 22 22 21 21 20
10 11 11 13 14 16 14 14 16 15 14 16 17 19 17 16 15 14 14 14 14 14 15 15 16 15 16 16 14 13 18 19 16 11 11 14 12 21 23 22 22 22 21
8 8 13 15 13 13 14 15 14 15 15 15 16 18 19 16 16 16 16 14 13 14 16 15 16 16 15 14 13 14 14 15 11 10 12 12 13 22 22 22 22 21 21
9 9 10 12 11 12 13 13 13 13 13 15 17 17 17 17 16 16 16 16 15 13 16 17 16 15 14 13 12 13 15 13 11 11 12 11 17 21 22 21 22 22 21
4 7 7 11 9 8 10 13 12 11 12 12 14 16 17 18 16 14 16 17 17 17 17 15 12 18 15 13 12 11 17 14 12 9 12 9 19 21 22 22 22 22 21
4 4 4 5 8 9 7 9 12 12 11 12 12 13 15 14 14 16 15 16 16 16 17 12 15 18 16 13 12 17 19 14 12 11 9 10 21 21 21 22 22 22 20
4 2 5 7 8 9 9 9 11 12 11 12 12 12 13 9 11 13 13 15 17 15 17 13 14 15 15 13 13 18 17 8 10 8 8 20 21 21 21 22 22 22 20
7 7 5 6 6 9 9 10 9 8 7 7 7 7 7 8 9 10 11 15 16 14 18 17 15 13 9 4 5 13 6 10 8 9 8 21 24 23 21 21 21 22 20
3 4 7 5 6 8 8 6 6 6 6 6 9 10 9 8 6 7 7 6 7 10 8 11 10 6 7 6 5 4 8 8 6 7 13 19 24 23 23 22 21 20 19
7 6 8 8 7 6 7 6 7 8 8 8 10 13 9 8 9 8 6 6 5 6 7 8 5 6 6 6 8 6 9 8 6 5 9 17 22 25 24 23 23 23 19
6 7 8 7 7 6 8 6 6 9 9 13 11 11 11 10 10 9 9 8 8 8 8 7 7 6 5 6 9 10 8 9 9 6 6 14 19 23 24 21 22 21 22
6 7 7 8 8 6 5 8 8 7 10 11 12 13 15 11 10 10 9 10 10 10 10 9 8 8 7 8 8 8 7 6 8 9 7 9 15 19 22 23 22 24 23
2 5 7 7 7 8 7 6 5 7 8 8 10 16 18 16 14 14 11 11 10 10 12 10 9 9 8 6 9 7 7 7 7 6 5 4 7 12 18 21 23 23 23
2 3 5 6 6 7 7 6 5 6 7 8 9 13 18 20 18 14 12 11 11 11 12 12 11 9 10 9 7 6 6 6 7 5 6 4 3 4 10 18 21 22 22
2 6 6 5 6 7 6 5 5 6 6 5 10 10 15 17 18 15 14 14 15 12 12 13 11 12 10 8 8 7 6 5 6 4 6 6 5 5 4 15 17 19 21
3 5 6 6 7 7 5 4 4 4 4 6 6 10 17 18 23 19 16 16 16 13 13 13 15 10 12 12 10 9 7 6 6 4 6 6 6 6 5 5 9 10 19
6 7 7 7 7 8 10 8 7 4 6 7 7 12 14 16 24 24 17 17 18 17 16 16 15 18 9 12 10 7 7 8 7 5 5 4 6 6 7 5 3 3 9
7 8 7 7 9 9 8 6 5 5 5 5 7 9 12 14 19 21 18 18 19 15 19 17 18 12 5 13 9 5 4 2 4 4 5 4 6 5 6 7 6 7 5
11 8 9 10 10 9 12 10 6 4 3 3 5 7 8 13 15 24 23 17 20 17 16 18 18 18 11 11 17 8 6 6 5 2 4 4 4 5 4 5 6 7 7
9 9 13 16 16 14 15 14 15 12 11 9 7 8 10 12 11 14 19 19 19 15 19 19 16 16 16 17 9 2 3 8 7 5 1 2 3 5 3 3 4 6 7
15 13 15 15 17 18 15 14 13 15 11 6 5 8 10 10 13 12 18 26 24 18 20 23 22 19 16 17 14 7 3 3 6 6 6 5 2 3 3 3 2 5 7
16 16 17 17 17 16 16 17 18 17 15 10 9 9 9 10 9 12 11 24 24 22 22 20 23 22 18 16 13 14 11 9 8 6 5 6 7 5 5 4 4 5 6
Wind_Direction
156 162 156 163 160 158 156 159 151 148 149 149 148 147 145 149 153 145 142 144 141 132 128 127 125 128 123 116 113 112 109 108 110 109 108 107 106 107 104 96 93 89 85
149 156 152 164 165 159 156 153 151 150 151 155 155 157 155 152 157 154 148 146 135 131 131 130 122 120 108 111 119 118 117 112 106 104 110 102 109 104 100 94 87 87 87
141 150 156 163 168 162 156 154 152 153 155 161 162 161 163 141 151 148 142 143 129 131 130 129 126 133 126 122 124 124 126 121 121 107 97 106 108 100 96 92 91 88 89
141 150 161 162 170 165 159 162 161 160 161 167 168 162 161 154 140 139 140 140 139 146 135 131 127 124 130 130 132 137 127 108 115 108 105 109 106 104 100 95 96 95 92
135 152 156 160 171 169 167 165 170 167 170 170 171 168 162 161 156 150 149 148 152 152 160 150 139 139 138 135 139 131 114 119 112 111 107 104 100 103 104 100 98 99 95
146 155 156 160 177 169 175 168 168 170 170 164 165 165 166 164 164 162 161 162 156 151 160 153 150 150 147 144 143 127 120 120 109 106 108 102 107 111 107 105 104 101 96
143 157 161 165 183 182 170 176 174 169 168 171 174 171 167 166 165 164 167 160 162 167 149 157 158 156 150 147 145 133 128 122 115 113 114 114 115 114 112 113 109 103 101
144 156 175 164 180 183 176 179 178 186 185 177 172 179 176 171 170 173 170 166 157 184 157 166 166 161 155 151 151 135 136 128 120 119 113 113 118 118 116 113 108 105 99
132 146 163 167 187 194 191 181 185 196 192 193 181 173 176 176 174 180 175 169 171 170 169 177 179 158 155 150 138 137 135 133 127 128 124 125 125 122 119 116 111 106 104
129 125 152 177 174 187 197 202 188 196 200 194 194 188 176 181 178 173 176 177 171 181 170 167 159 154 155 145 134 134 135 135 137 132 129 128 130 127 122 118 112 109 106
352 183 176 191 195 193 194 204 203 201 206 206 201 188 180 178 183 178 179 173 170 184 163 153 153 149 143 141 139 143 140 145 140 136 138 138 135 132 127 123 117 112 110
342 335 278 208 209 198 203 200 202 205 208 206 201 193 174 176 180 178 178 179 177 179 162 155 146 129 127 131 142 154 144 147 147 147 147 147 141 137 134 127 122 118 117
298 324 320 291 235 208 217 207 199 201 201 210 200 197 187 185 180 175 178 190 185 172 169 151 140 147 153 146 139 138 144 141 141 150 156 155 147 147 140 132 127 119 122
319 298 320 338 324 232 214 234 207 202 197 210 208 200 191 184 184 179 175 165 184 162 151 151 151 159 158 153 140 125 132 136 145 136 158 156 154 152 149 143 138 129 128
0 339 330 335 335 335 313 241 231 236 205 203 208 210 192 190 186 177 178 172 171 163 161 162 152 146 130 127 137 129 125 133 139 150 150 156 160 157 153 146 141 136 134
341 333 330 330 323 321 315 327 294 232 239 222 204 203 210 194 185 185 178 176 174 171 168 164 157 138 133 131 122 123 128 120 139 148 151 163 164 165 157 155 152 144 143
305 321 330 319 324 328 315 297 296 306 281 211 231 210 201 202 191 183 184 179 178 172 169 156 145 136 125 121 116 107 116 120 103 118 104 119 164 162 166 160 154 151 146
271 278 295 315 317 310 308 306 297 289 285 276 226 223 216 199 196 184 180 181 176 170 171 166 156 147 138 134 125 114 105 102 98 82 92 87 86 142 160 158 155 149 147
307 315 314 299 302 303 297 298 294 289 296 282 271 220 211 213 200 192 190 179 174 170 177 170 161 153 139 119 107 86 72 87 85 91 93 90 82 79 108 139 146 149 149
307 330 318 313 303 295 299 282 280 278 266 273 259 268 224 206 200 199 194 182 171 172 176 172 157 154 144 130 110 84 60 54 57 57 78 84 80 88 81 99 136 154 156
334 320 299 295 302 311 303 288 280 250 278 276 263 278 296 232 207 200 194 181 176 176 175 170 154 141 134 134 111 80 61 51 52 47 55 60 75 55 65 49 52 77 143
272 277 285 286 296 300 300 278 248 255 246 253 272 270 276 278 247 189 192 188 178 178 172 160 160 143 123 166 145 115 140 52 49 45 55 54 44 57 53 53 69 71 62
297 291 305 301 295 291 297 296 281 265 270 258 266 272 258 254 274 204 187 185 174 177 172 163 170 160 153 187 168 140 148 176 128 71 62 83 72 64 39 58 72 78 68
305 307 311 305 297 291 287 277 274 271 265 263 262 273 276 275 274 293 182 178 175 171 178 166 176 168 160 175 184 157 96 136 153 152 144 108 101 108 91 70 96 90 91
311 307 305 296 295 289 282 279 278 278 267 253 240 264 270 269 268 230 256 188 183 178 181 172 174 176 180 176 175 152 128 98 116 139 150 163 128 162 159 156 137 124 121
312 311 306 299 292 287 281 274 270 270 267 259 258 260 263 266 268 253 253 225 183 181 179 179 175 178 179 180 187 175 169 164 176 153 131 150 151 159 160 180 186 156 140